{"data":{"norad_id":87211,"intl_designator":"","name":"UNKNOWN","alt_names":[],"object_type":"UNKNOWN","status":"UNKNOWN","operator":null,"country":null,"launch_date":null,"launch_site_code":null,"launch_vehicle":null,"mission":null,"orbit_class":"UNKNOWN","rcs_meters":null,"size_class":null,"mass_kg":null,"dimensions":null,"purposes":[],"wikipedia_slug":null,"has_3d_model":false,"image_url":null,"decayed_at":null,"tle_current":{"epoch":"2026-05-23T19:51:33.733728Z","epoch_age_seconds":166573,"freshness":"FRESH","line1":"1 87211U          26143.82747377  .00002155  00000+0  58795-3 0  9999","line2":"2 87211  99.0821 160.4493 0053175  38.5654 138.1228 14.47670371731218","mean_motion":14.47670371,"eccentricity":0.0053175,"inclination_deg":99.0821,"raan_deg":160.4493,"arg_perigee_deg":38.5654,"mean_anomaly_deg":138.1228,"bstar":0.00058795,"rev_number":73121,"period_min":99.470157630241,"perigee_km":695.4526362634,"apogee_km":771.08242343836,"semimajor_km":7111.4045298509,"source":"CELESTRAK","updated_at":"2026-05-25T13:38:11.664326Z"}}}